Flag for U.S.A. Weather past 2 weeks in Trenton, New Jersey, U.S.A.

Now
73 °F

Overcast.


Feels Like: 77 °F
Forecast: 60 / 77 °F
Wind: 8 mph from Northwest

Location: Mercer County Airport

Current Time: Jul 29, 2014 at 5:08:53 PM

Latest Report: Jul 29, 2014 at 3:53 PM


Visibility: 10 mi

Pressure: 29.89 "Hg

Humidity: 46%

Dew point: 51 °F

Location of TrentonLocation

Historic Weather in Trenton — Graph

°F

Trenton temperature yesterday

Maximum temperature yesterday: 82 °F (at 2:53 PM)
Minimum temperature yesterday: 67 °F (at 4:53 AM)
Average temperature yesterday: 73 °F

Past Weeks' High & Low Weather Summary

 TemperatureHumidityPressure
High90 °F (Jul 23, 4:53 PM)97% (Jul 14, 8:56 PM)30.23 "Hg (Jul 14, 8:56 PM)
Low60 °F (Jul 18, 5:53 AM)38% (Jul 17, 4:53 PM)29.52 "Hg (Jul 28, 4:53 AM)
Average73 °F68%29.94 "Hg
* Reported Jul 14 3:53 PM — Jul 29 3:53 PM, Trenton, Weather by CustomWeather, © 2014

Note: Actual official high and low records may vary slightly from our data, if they occured in-between our weather recording intervals... More about our weather records

Advertising

Trenton weather history for previous 24 hours

 ConditionsComfort  
Time TempWeatherWind HumidityBarometerVisibility
3:53 PM
Jul 29
73 °FOvercast.8 mph46%29.89 "Hg10 mi
2:53 PM74 °FOvercast.6 mph45%29.88 "Hg10 mi
1:53 PM73 °FMore clouds than sun.8 mph44%29.87 "Hg10 mi
12:53 PM73 °FScattered clouds.8 mph50%29.86 "Hg10 mi
11:53 AM71 °FSunny.7 mph55%29.86 "Hg10 mi
10:53 AM69 °FSunny.7 mph59%29.87 "Hg10 mi
9:53 AM68 °FSunny.9 mph63%29.86 "Hg10 mi
8:53 AM65 °FPartly sunny.12 mph70%29.86 "Hg10 mi
7:53 AM63 °FPartly sunny.N/A73%29.85 "Hg10 mi
6:53 AM61 °FSunny.N/A78%29.83 "Hg10 mi
5:53 AM60 °FPassing clouds.N/A80%29.81 "Hg10 mi
4:53 AM61 °FClear.N/A78%29.80 "Hg10 mi
3:53 AM62 °FClear.N/A75%29.77 "Hg10 mi
2:53 AM63 °FClear.N/A73%29.76 "Hg10 mi
1:53 AM65 °FClear.N/A68%29.75 "Hg10 mi
12:53 AM66 °FClear.N/A68%29.73 "Hg10 mi
11:53 PM
Jul 28
67 °FClear.N/A68%29.72 "Hg10 mi
10:53 PM68 °FClear.N/A70%29.72 "Hg10 mi
9:53 PM68 °FPassing clouds.9 mph76%29.70 "Hg10 mi
8:53 PM70 °FScattered clouds.14 mph68%29.67 "Hg10 mi
7:53 PM73 °FMostly cloudy.N/A59%29.63 "Hg10 mi
6:53 PM79 °FPartly sunny.14 mph45%29.60 "Hg10 mi
5:53 PM81 °FSunny.N/A45%29.57 "Hg10 mi
Weather by CustomWeather, © 2014

See weather overviewHow to use our weather pages